Weather History for Pierre, SD

Change the Weather History Date:

Thursday, February 14, 2013

  Actual Average Record
Temperature  
Mean Temperature 30 °F 24 °F  
Max Temperature 37 °F 35 °F 72 °F (1954)
Min Temperature 23 °F 13 °F -24 °F (1936)
Degree Days  
Heating Degree Days 35 41  
Month to date heating degree days 506 596  
Since 1 July heating degree days 4838 4956  
Cooling Degree Days 0 0  
Month to date cooling degree days 0 0  
Year to date cooling degree days 0 0  
Moisture  
Dew Point 23 °F    
Average Humidity 73    
Maximum Humidity 85    
Minimum Humidity 61    
Precipitation  
Precipitation 0.00 in 0.02 in 0.42 in (1995)
Month to date precipitation 0.64 0.23  
Year to date precipitation 1.51 0.65  
Snow  
Snow 0.00 in 0.30 in 5.50 in (1967)
Month to date snowfall 6.4 2.5  
Since 1 July snowfall 27.7 18.4  
Snow Depth T in    
Sea Level Pressure  
Sea Level Pressure 30.09 in    
Wind  
Wind Speed 17 mph (NW)    
Max Wind Speed 41 mph    
Max Gust Speed 49 mph    
Visibility 7 miles    
Events Snow    
T = Trace of Precipitation, MM = Missing Value Source: NWS Daily Summary

Daily Weather History Graph

Daily Weather History Graph

Search for Another Location

Airport:

Trip Planner

Search our weather history database for the weather conditions in past years. The results will help you decide how hot, cold, wet, or windy it might be!

Date:

Astronomy

Feb. 14, 2013 Rise Set
Actual Time 7:41 AM CST 6:09 PM CST
Civil Twilight 7:12 AM CST 6:39 PM CST
Nautical Twilight 6:38 AM CST 7:13 PM CST
Astronomical Twilight 6:04 AM CST 7:46 PM CST
Moon 9:31 AM CST (2/14) 11:28 PM CST (2/14)
Length of Visible Light 11h 27m
Length of Day
10h 27m
Waxing Crescent, 22% of the Moon is Illuminated
Feb 14
Waxing Crescent
Feb 17
First Quarter
Feb 25
Full
Mar 4
Last Quarter
Mar 11
New

Hourly Weather History & Observations

Time (CST) Temp. Windchill Dew Point Humidity Pressure Visibility Wind Dir Wind Speed Gust Speed Precip Events Conditions
12:53 AM 36.0 °F 25.0 °F 28.9 °F 76% 29.88 in 10.0 mi WNW 20.7 mph - N/A   Mostly Cloudy
1:53 AM 34.0 °F 22.7 °F 28.0 °F 79% 29.88 in 10.0 mi WNW 19.6 mph - N/A   Clear
2:53 AM 34.0 °F 23.0 °F 27.0 °F 75% 29.89 in 10.0 mi WNW 18.4 mph - N/A   Clear
3:53 AM 32.0 °F 22.1 °F 26.1 °F 79% 29.91 in 10.0 mi WNW 13.8 mph - N/A   Clear
4:53 AM 32.0 °F 23.0 °F 24.1 °F 73% 29.93 in 10.0 mi West 11.5 mph - N/A   Clear
5:53 AM 32.0 °F 21.2 °F 21.9 °F 66% 29.94 in 10.0 mi WNW 16.1 mph 25.3 mph N/A   Overcast
6:53 AM 32.0 °F 20.8 °F 21.9 °F 66% 29.97 in 10.0 mi West 17.3 mph - N/A   Overcast
7:53 AM 33.1 °F 21.2 °F 23.0 °F 66% 29.99 in 10.0 mi WNW 20.7 mph 25.3 mph N/A   Overcast
8:53 AM 33.1 °F 21.9 °F 21.9 °F 64% 30.00 in 10.0 mi WNW 18.4 mph - N/A   Overcast
9:53 AM 33.1 °F 21.5 °F 24.1 °F 70% 30.01 in 5.0 mi WNW 19.6 mph - 0.00 in Snow Light Snow
10:22 AM 30.2 °F 18.1 °F 26.6 °F 86% 29.97 in 1.5 mi WNW 18.4 mph - 0.00 in Snow Light Snow
10:29 AM 30.2 °F 18.5 °F 26.6 °F 86% 29.97 in 1.0 mi WNW 17.3 mph - 0.00 in Snow Light Snow
10:39 AM 30.2 °F 17.8 °F 26.6 °F 86% 29.98 in 2.5 mi WNW 19.6 mph 25.3 mph 0.00 in Snow Light Snow
10:53 AM 30.9 °F 18.7 °F 27.0 °F 85% 30.03 in 4.0 mi NW 19.6 mph - 0.00 in Snow Light Snow
11:22 AM 33.8 °F 21.3 °F 28.4 °F 81% 29.99 in 5.0 mi NW 24.2 mph 28.8 mph 0.00 in Snow Light Snow
11:29 AM 32.0 °F 18.1 °F 28.4 °F 87% 29.99 in 2.5 mi NW 27.6 mph 34.5 mph 0.00 in Snow Light Snow
11:38 AM 32.0 °F 19.5 °F 28.4 °F 87% 30.00 in 1.2 mi NW 21.9 mph 34.5 mph 0.00 in Snow Light Snow
11:46 AM 30.2 °F 14.1 °F 26.6 °F 86% 30.00 in 1.5 mi NNW 35.7 mph 44.9 mph 0.00 in Snow Light Snow
11:53 AM 28.9 °F 12.8 °F 25.0 °F 85% 30.06 in 2.5 mi NNW 33.4 mph 44.9 mph 0.00 in Snow Light Snow
12:00 PM 28.4 °F 12.3 °F 24.8 °F 86% 30.02 in 3.0 mi NNW 32.2 mph 43.7 mph 0.00 in Snow Light Snow
12:22 PM 26.6 °F 8.5 °F 23.0 °F 86% 30.05 in 1.8 mi North 39.1 mph 49.5 mph 0.00 in Snow Light Snow
12:48 PM 24.8 °F 7.3 °F 21.2 °F 86% 30.10 in 2.0 mi North 32.2 mph 42.6 mph 0.00 in Snow Light Snow
12:53 PM 26.1 °F 8.8 °F 21.0 °F 81% 30.17 in 3.0 mi North 33.4 mph 42.6 mph 0.00 in Snow Light Snow
1:53 PM 26.1 °F 10.7 °F 19.0 °F 75% 30.22 in 10.0 mi North 25.3 mph 36.8 mph 0.00 in   Overcast
2:53 PM 27.0 °F 12.5 °F 19.0 °F 72% 30.26 in 10.0 mi North 23.0 mph - N/A   Mostly Cloudy
3:53 PM 28.0 °F 14.9 °F 19.0 °F 69% 30.28 in 10.0 mi NNW 19.6 mph 27.6 mph N/A   Overcast
4:53 PM 27.0 °F 13.9 °F 17.1 °F 66% 30.30 in 10.0 mi NNW 18.4 mph 27.6 mph N/A   Overcast
5:53 PM 26.1 °F 14.0 °F 16.0 °F 66% 30.32 in 10.0 mi NNW 15.0 mph - N/A   Overcast
6:53 PM 26.1 °F 14.5 °F 17.1 °F 69% 30.33 in 10.0 mi NNW 13.8 mph - N/A   Overcast
7:53 PM 26.1 °F 16.8 °F 17.1 °F 69% 30.34 in 10.0 mi NNW 9.2 mph - N/A   Overcast
8:53 PM 25.0 °F 16.3 °F 17.1 °F 72% 30.35 in 10.0 mi NNW 8.1 mph - N/A   Scattered Clouds
9:53 PM 23.0 °F 13.9 °F 16.0 °F 74% 30.36 in 10.0 mi NW 8.1 mph - N/A   Mostly Cloudy
10:53 PM 24.1 °F 17.0 °F 17.1 °F 75% 30.35 in 10.0 mi NNE 5.8 mph - N/A   Overcast
11:53 PM 24.1 °F 17.0 °F 17.1 °F 75% 30.36 in 10.0 mi West 5.8 mph - N/A   Overcast